Regional Weather Roundup
Issued by NWS

Home | Current Version | Previous Version | Graphics & Text | Print | Product List | Glossary On
Versions: 1 2 3 4 5 6 7 8 9 10 11 12 13 14 15 16 17 18 19 20 21 22 23 24 25 26 27 28 29 30 31 32 33 34 35 36 37 38 39 40 41 42 43 44 45 46 47 48 49 50
000
ASUS43 KOAX 131310
RWRNE

WEATHER ROUNDUP FOR NEBRASKA
NATIONAL WEATHER SERVICE OMAHA NE
700 AM CST SAT FEB 13 2016

NOTES: SATELLITE DATA IS BEING USED TO AUGMENT CLOUD COVER ABOVE
       12000 FEET.
       "FAIR" INDICATES FEW OR NO CLOUDS BELOW 12,000 FEET WITH NO
       SIGNIFICANT WEATHER AND/OR OBSTRUCTIONS TO VISIBILITY.

  * THESE STATIONS DO NOT REPORT WEATHER SUCH AS RAIN...SNOW OR FOG.

NEZ001>004-019>022-054>056-131400-
NEBRASKA PANHANDLE

CITY           SKY/WX    TMP DP  RH WIND       PRES   REMARKS
SCOTTSBLUFF    CLOUDY    30  28  92 SE8       30.08F WCI  22
ALLIANCE       CLOUDY    31  30  96 S15       30.08F FOG     WCI  20
CHADRON        CLOUDY    31  28  89 S3        30.06F
KIMBALL        FOG       30  30 100 S9        30.09S VSB 1/4 WCI  22
SIDNEY         CLOUDY    30  29  96 S15G21    30.12F WCI  19
$$

NEZ057>060-069>072-079>082-131400-
SOUTHWEST NEBRASKA

CITY           SKY/WX    TMP DP  RH WIND       PRES   REMARKS
NORTH PLATTE   CLOUDY    22  19  89 SE10      30.28F WCI  11
IMPERIAL       CLOUDY    27  25  92 S20       30.23F WCI  13
LEXINGTON      CLOUDY    20  16  82 SE13      30.37F WCI   8
MCCOOK         CLOUDY    22  20  92 SE14      30.34S WCI   9
OGALLALA       CLOUDY    29  28  92 S12       30.21F FOG     WCI  20
$$

NEZ005>010-023>029-035>040-094-131400-
NORTH CENTRAL NEBRASKA

CITY           SKY/WX    TMP DP  RH WIND       PRES   REMARKS
VALENTINE      CLOUDY    22  19  89 S18       30.23S WCI   7
AINSWORTH      CLOUDY    19  17  90 S21       30.26F WCI   3
BROKEN BOW     CLOUDY    17  12  80 SE16G23   30.35F WCI   2
O`NEILL        CLOUDY    15  10  83 S13       30.40F WCI   1
ORD            CLOUDY    15   6  67 SE10      30.40F WCI   2
THEDFORD       CLOUDY    23  22  95 S15       30.26F FOG     WCI  10
$$

NEZ041-046>049-061>064-073>077-083>087-131400-
SOUTH CENTRAL NEBRASKA

CITY           SKY/WX    TMP DP  RH WIND       PRES   REMARKS
GRAND ISLAND   CLOUDY    14   7  73 SE13      30.47F WCI   0
AURORA         CLOUDY    14   7  72 SE13      30.47F WCI   0
HASTINGS       CLOUDY    15   6  67 SE12      30.44F WCI   2
HEBRON         CLOUDY    18   9  67 E9        30.51F WCI   7
HOLDREGE       CLOUDY    19  16  88 SE12      30.39F WCI   6
KEARNEY *      CLOUDY    16  10  79 SE14      30.41F WCI   1
YORK           CLOUDY    14   7  73 SE10      30.49F WCI   1
$$

NEZ011>018-030>034-042>045-131400-
NORTHEAST NEBRASKA

CITY           SKY/WX    TMP DP  RH WIND       PRES   REMARKS
NORFOLK        CLOUDY    12   3  67 E10       30.49F WCI  -1
ALBION         FLURRIES  13   8  82 SE8       30.46F WCI   1
BLAIR          CLOUDY    10   2  70 E6        30.56F WCI   0
COLUMBUS *     CLOUDY    12   0  57 E7        30.52F WCI   2
FREMONT        CLOUDY    11   2  67 E6        30.57F WCI   1
TEKAMAH        CLOUDY     8   0  69 E8        30.60F WCI  -4
WAYNE          CLOUDY     8  -1  68 SE9       30.54F WCI  -6
$$

NEZ050>053-065>068-078-088>093-131400-
SOUTHEAST NEBRASKA

CITY           SKY/WX    TMP DP  RH WIND       PRES   REMARKS
LINCOLN        CLOUDY    15   6  67 E7        30.56F WCI   5
OMAHA EPPLEY   CLOUDY    10   0  63 E8        30.62F WCI  -2
BEATRICE       CLOUDY    16   4  58 E8        30.54F WCI   5
FALLS CITY     CLOUDY    15   4  61 E8        30.59F WCI   4
NEBRASKA CITY  CLOUDY    13   2  63 E7        30.58F WCI   2
PLATTSMOUTH    CLOUDY    11   1  66 E5        30.58F WCI   3
$$

NEZ044-045-051>053-067-131400-
OMAHA AREA

CITY           SKY/WX    TMP DP  RH WIND       PRES   REMARKS
OMAHA EPPLEY   CLOUDY    10   0  63 E8        30.62F WCI  -2
BLAIR          CLOUDY    10   2  70 E6        30.56F WCI   0
FREMONT        CLOUDY    11   2  67 E6        30.57F WCI   1
MILLARD        CLOUDY    11   1  62 E3        30.60S
OFFUTT AFB     CLOUDY    11   1  63 E5        30.60F WCI   2
PLATTSMOUTH    CLOUDY    11   1  66 E5        30.58F WCI   3
WAHOO          CLOUDY    13   5  70 E7        30.56F WCI   3
$$



USA.gov is the U.S. government's official web portal to all federal, state and local government web resources and services.